Regional Weather Roundup
Issued by NWS

Home | Current Version | Previous Version | Graphics & Text | Print | Product List | Glossary On
Versions: 1 2 3 4 5 6 7 8 9 10 11 12 13 14 15 16 17 18 19 20 21 22 23 24 25 26 27 28 29 30 31 32 33 34 35 36 37 38 39 40 41 42 43 44 45 46 47 48 49 50
000
ASUS43 KLOT 031000
RWRIL

ILLINOIS REGIONAL WEATHER ROUNDUP
NATIONAL WEATHER SERVICE CHICAGO/ROMEOVILLE IL
500 AM CDT WED JUN 03 2015

NOTE: "FAIR" INDICATES FEW OR NO CLOUDS BELOW 12,000 FEET WITH NO
SIGNIFICANT WEATHER AND/OR OBSTRUCTIONS TO VISIBILITY.

* THESE STATIONS ARE NOT UNDER NWS QUALITY CONTROL. THEY ALSO MAY NOT
  REPORT WEATHER SUCH AS PRECIPITATION OR FOG.

ILZ001-002-007-009-015-016-024-031100-
NORTHWEST ILLINOIS

CITY           SKY/WX    TMP DP  RH WIND       PRES   REMARKS
MOLINE         CLEAR     56  50  80 CALM      30.02R
STERLING*      PTCLDY    55  52  88 SE5       30.05R
$$

ILZ003-004-008-010-011-017-018-031100-
NORTH CENTRAL ILLINOIS

CITY           SKY/WX    TMP DP  RH WIND       PRES   REMARKS
ROCKFORD       PTCLDY    54  48  80 SE6       30.08R
FREEPORT*      PTCLDY    53  50  89 SE5       30.06S
$$

ILZ005-006-012>014-019>023-031100-
NORTHEAST ILLINOIS

CITY           SKY/WX    TMP DP  RH WIND       PRES   REMARKS
CHICAGO-OHARE  MOCLDY    52  46  80 SE3       30.07S
CHICAGO-MIDWAY MOCLDY    57  51  80 SE8       30.07F
AURORA         PTCLDY    50  45  83 CALM      30.07S
WAUKEGAN       PTCLDY    47  45  93 CALM      30.07S
DUPAGE AIRPORT PTCLDY    51  46  83 CALM      30.07R
WHEELING       PTCLDY    49  45  86 CALM      30.09S
NORTHERLY ISL    N/A     53  50  89 CALM        N/A
$$

LMZ740>746-031100-
SOUTHERN LAKE MICHIGAN

STATION/POSITION SKY/WX   TEMP    WIND        PRES    VSBY  WAVE
                          AIR SEA DIR/SP/G                  HT/PER
                          (F)     (DEG/KT/KT) (MB)    (MI)  (FT/S)
SOUTHERN BUOY              45 38  150/  6/  6 1019.4R
HARRISON CRIB              55     150/  6/  7   N/A
BURNHAM HARBOR             52      CALM  /  1   N/A
CALUMET HARBOR             57     150/  3/  5   N/A
BURNS HARBOR                      150/  7/ 11 1019.3R
MICHIGAN CITY              53     110/  6/  7   N/A
MICHIGAN CITY 6N           56 56  140/  4/  6   N/A           1
ST. JOSEPH                 55 55  140/  6/  6   N/A           0
$$

ILZ025>027-034>036-040-047-049-050-058-095>099-031100-
WEST-CENTRAL ILLINOIS

CITY           SKY/WX    TMP DP  RH WIND       PRES   REMARKS
QUINCY         PTCLDY    58  55  90 S5        30.01F FOG
MACOMB*        CLEAR     53  53  99 S3        30.04S FOG
$$

ILZ028>032-037-038-041>044-048-051>054-059>061-031100-
CENTRAL ILLINOIS

CITY           SKY/WX    TMP DP  RH WIND       PRES   REMARKS
DECATUR        FOG       53  52  96 SE3       30.06R VSB 1
PEORIA         PTCLDY    59  54  83 SE6       30.04S
LINCOLN*       PTCLDY    57  55  91 SE3       30.03F FOG
SPRINGFIELD    CLEAR     56  53  90 SE5       30.04S
TAYLORVILLE    NOT AVBL
$$

ILZ033-039-045-046-055>057-062-063-031100-
EAST-CENTRAL ILLINOIS

CITY           SKY/WX    TMP DP  RH WIND       PRES   REMARKS
CHAMPAIGN      CLEAR     53  51  93 SE5       30.06S
MATTOON        CLOUDY    58  55  90 SE5       30.05S
$$

ILZ079-100>102-031100-
SOUTHWEST ILLINOIS

CITY           SKY/WX    TMP DP  RH WIND       PRES   REMARKS
BELLEVILLE     PTCLDY    54  54 100 CALM      30.03S FOG
CAHOKIA*       PTCLDY    54  53  97 CALM      30.04S
SPARTA*        MOCLDY    55  54  98 CALM      30.05R
$$

ILZ064>066-069>071-074>076-080>082-084>086-088>090-092>094-031100-
SOUTH-CENTRAL ILLINOIS

CITY           SKY/WX    TMP DP  RH WIND       PRES   REMARKS
CARBONDALE     MOCLDY    54  53  97 CALM      30.04S
MT. VERNON     CLOUDY    54  48  82 CALM      30.06S
SALEM*         CLOUDY    59  56  91 CALM      30.06S FOG
$$

ILZ067-068-072-073-078-083-087-091-031100-
SOUTHEAST ILLINOIS

CITY           SKY/WX    TMP DP  RH WIND       PRES   REMARKS
LAWRENCEVILLE  CLEAR     54  52  93 NE3       30.06S FOG
HARRISBURG*    CLOUDY    57  57 100 CALM      30.06R FOG
ROBINSON*      CLEAR     53  52  96 CALM      30.07F FOG
$$

ABBREVIATIONS USED IN REMARKS
   TC - TEMPERATURE IN CELSIUS
  WCI - WIND CHILL INDEX
   HX - HEAT INDEX
  VSB - VISIBILITY
$$




USA.gov is the U.S. government's official web portal to all federal, state and local government web resources and services.